PDT,Max TemperatureF,Mean TemperatureF,Min TemperatureF,Max Dew PointF,MeanDew PointF,Min DewpointF,Max Humidity, Mean Humidity, Min Humidity, Max Sea Level PressureIn, Mean Sea Level PressureIn, Min Sea Level PressureIn, Max VisibilityMiles, Mean VisibilityMiles, Min VisibilityMiles, Max Wind SpeedMPH, Mean Wind SpeedMPH, Max Gust SpeedMPH,PrecipitationIn, CloudCover, Events, WindDirDegrees
2012-3-1,48,44,41,48,42,39,100,91,81,30.24,30.21,30.17,10,9,3,22,10,26,0.00,6,Rain,126
2012-3-2,59,46,33,39,30,27,100,62,31,30.36,30.31,30.25,10,10,10,14,6,,0.00,1,,347
2012-3-3,64,48,32,39,35,32,100,66,30,30.38,30.33,30.26,10,10,10,6,1,,0.00,0,,322
2012-3-4,71,55,39,41,39,37,93,58,31,30.24,30.16,30.05,10,10,10,5,1,,0.00,0,,310
2012-3-5,71,53,35,48,42,36,100,62,35,30.09,30.00,29.93,10,10,10,12,4,,0.00,2,,176
2012-3-6,55,47,39,45,25,12,93,46,19,30.04,29.94,29.87,10,10,10,29,13,37,0.00,3,,308
2012-3-7,62,48,35,27,18,14,65,33,16,30.18,30.12,30.05,10,10,10,22,14,29,0.00,0,,332
2012-3-8,64,48,32,34,28,25,80,48,24,30.34,30.29,30.21,10,10,10,8,3,,0.00,0,,133
2012-3-9,69,50,32,37,33,28,93,63,26,30.34,30.26,30.11,10,10,10,8,2,,0.00,0,,90
2012-3-10,64,50,35,46,39,32,93,73,42,30.10,30.03,29.95,10,10,10,16,8,16,0.00,2,,156
2012-3-11,57,50,44,45,42,37,87,70,55,30.06,30.02,29.99,10,10,10,15,9,,0.00,7,,164
2012-3-12,59,49,39,41,38,36,87,62,44,30.06,29.99,29.92,10,10,10,13,5,,0.00,5,,166
2012-3-13,53,50,48,50,46,39,93,81,58,30.00,29.96,29.90,10,8,5,22,13,29,0.00,8,Rain,143
2012-3-14,55,52,50,55,52,50,100,99,94,30.13,30.06,29.99,10,6,1,14,10,16,0.00,8,Rain,138
2012-3-15,59,56,53,55,54,52,100,95,82,30.17,30.11,30.05,10,9,5,9,4,,0.00,8,Rain,148
2012-3-16,55,50,46,55,51,45,100,95,87,30.05,29.90,29.72,10,6,2,20,9,26,0.00,8,Rain,162
2012-3-17,48,42,35,43,39,36,100,86,66,29.95,29.63,29.51,10,10,8,9,7,,0.00,6,Rain,131
2012-3-18,50,44,37,39,37,34,100,78,58,29.85,29.74,29.63,10,10,10,18,8,24,0.00,6,Rain,157
2012-3-19,50,41,32,37,33,27,93,62,40,30.10,30.05,29.99,10,10,10,6,2,,0.00,7,,102
2012-3-20,62,53,44,45,39,32,87,62,39,30.22,30.17,30.12,10,10,10,7,3,,0.00,7,,71
2012-3-21,66,54,42,50,45,41,93,71,52,30.18,30.08,29.96,10,10,10,9,3,,0.00,5,,175
2012-3-22,59,52,44,50,43,28,100,69,38,30.00,29.95,29.91,10,10,10,15,8,18,0.00,6,,198
2012-3-23,59,47,35,37,34,30,93,63,36,30.12,30.02,29.91,10,10,10,10,6,,0.00,3,,162
2012-3-24,53,50,44,43,39,37,87,72,58,29.92,29.86,29.83,10,10,10,13,7,17,0.00,6,,205
2012-3-25,55,48,41,43,41,39,100,76,54,29.89,29.85,29.79,10,10,5,8,3,,0.00,5,Rain,249
2012-3-26,57,47,37,43,40,36,100,68,51,30.11,30.06,29.99,10,10,10,13,8,17,0.00,5,,158
2012-3-27,57,50,44,50,43,36,100,77,47,30.06,29.98,29.91,10,8,3,20,8,26,0.00,8,Rain,131
2012-3-28,62,56,50,50,48,41,100,79,51,30.12,30.05,29.98,10,9,3,21,13,26,0.00,7,Rain,162
2012-3-29,60,50,41,50,46,41,100,78,55,30.15,30.11,30.07,10,9,7,7,3,,0.00,7,,181
2012-3-30,64,56,48,52,50,48,100,82,59,30.13,30.02,29.93,10,10,7,12,2,,0.00,6,,201
2012-3-31,59,52,44,54,47,41,100,83,63,29.93,29.83,29.71,10,9,2,28,10,34,0.00,7,Rain,139